CGAS CYVR-KSEA

Flight info

Callsign CGAS
Flight time 0h 27m
Altitude 21000
Route ROESH MARNR8
Aircraft C700/M-SBDGHM1RWXY/LB2

Departure

Time 2026-05-05 02:17
Airport Vancouver International Airport (CYVR)

Arrival

Time 2026-05-05 02:44
Airport Seattle–Tacoma International Airport (KSEA)
Time Latitude Longitude Altitude Speed Heading
2026-05-05 02:04 49.18145 -123.16142 13 ft 0 kts 191°
2026-05-05 02:11 49.18137 -123.16133 23 ft 4 kts 130°
2026-05-05 02:11 49.18134 -123.16084 13 ft 4 kts 37°
2026-05-05 02:12 49.18146 -123.16078 13 ft 0 kts 14°
2026-05-05 02:12 49.18175 -123.16068 13 ft 8 kts
2026-05-05 02:13 49.18204 -123.16135 13 ft 9 kts 280°
2026-05-05 02:13 49.18206 -123.16157 13 ft 0 kts 280°
2026-05-05 02:13 49.18210 -123.16190 13 ft 7 kts 280°
2026-05-05 02:13 49.18229 -123.16265 13 ft 7 kts 337°
2026-05-05 02:14 49.18279 -123.16264 13 ft 0 kts
2026-05-05 02:15 49.18281 -123.16264 13 ft 3 kts
2026-05-05 02:16 49.18339 -123.16255 13 ft 13 kts
2026-05-05 02:16 49.18419 -123.16243 13 ft 7 kts
2026-05-05 02:16 49.18491 -123.16282 13 ft 16 kts 298°
2026-05-05 02:16 49.18530 -123.16582 11 ft 64 kts 280°
2026-05-05 02:17 49.18661 -123.17766 67 ft 155 kts 278°
2026-05-05 02:17 49.18880 -123.19554 870 ft 184 kts 280°
2026-05-05 02:17 49.19160 -123.21554 2013 ft 198 kts 282°
2026-05-05 02:17 49.19458 -123.23622 3328 ft 204 kts 282°
2026-05-05 02:18 49.19770 -123.25802 4732 ft 216 kts 283°
2026-05-05 02:18 49.20110 -123.28099 6192 ft 228 kts 284°
2026-05-05 02:18 49.20476 -123.30536 7570 ft 241 kts 284°
2026-05-05 02:18 49.20840 -123.32980 9160 ft 246 kts 285°
2026-05-05 02:19 49.21199 -123.35761 9812 ft 285 kts 276°
2026-05-05 02:19 49.20762 -123.38816 10348 ft 309 kts 244°
2026-05-05 02:19 49.19785 -123.41606 9773 ft 319 kts 249°
2026-05-05 02:19 49.18818 -123.44676 10142 ft 311 kts 236°
2026-05-05 02:20 49.17156 -123.46665 11959 ft 304 kts 206°
2026-05-05 02:20 49.15131 -123.48049 13159 ft 334 kts 206°
2026-05-05 02:20 49.12932 -123.49562 14237 ft 358 kts 203°
2026-05-05 02:20 49.10418 -123.50314 14829 ft 396 kts 181°
2026-05-05 02:21 49.07606 -123.49549 14842 ft 424 kts 158°
2026-05-05 02:21 49.05082 -123.47238 14844 ft 423 kts 139°
2026-05-05 02:21 49.02924 -123.44225 14850 ft 420 kts 133°
2026-05-05 02:21 49.00869 -123.41079 14851 ft 420 kts 133°
2026-05-05 02:22 48.98730 -123.38038 14855 ft 421 kts 137°
2026-05-05 02:22 48.96377 -123.35412 14976 ft 421 kts 145°
2026-05-05 02:22 48.93873 -123.33074 14952 ft 423 kts 148°
2026-05-05 02:22 48.91343 -123.30780 14954 ft 423 kts 146°
2026-05-05 02:23 48.88907 -123.28277 14952 ft 422 kts 142°
2026-05-05 02:23 48.86524 -123.25668 14951 ft 422 kts 142°
2026-05-05 02:23 48.84131 -123.23192 14952 ft 422 kts 144°
2026-05-05 02:23 48.81664 -123.20760 14950 ft 422 kts 145°
2026-05-05 02:24 48.79218 -123.18293 14957 ft 422 kts 144°
2026-05-05 02:24 48.76795 -123.15778 14957 ft 422 kts 144°
2026-05-05 02:24 48.74372 -123.13289 14961 ft 420 kts 144°
2026-05-05 02:24 48.71936 -123.10836 14961 ft 420 kts 144°
2026-05-05 02:25 48.69499 -123.08376 14961 ft 420 kts 144°
2026-05-05 02:25 48.67079 -123.05908 14961 ft 420 kts 144°
2026-05-05 02:25 48.64621 -123.03509 14954 ft 421 kts 149°
2026-05-05 02:25 48.61961 -123.01769 14954 ft 424 kts 160°
2026-05-05 02:26 48.59098 -123.00718 14967 ft 425 kts 168°
2026-05-05 02:26 48.56273 -122.99651 14965 ft 410 kts 161°
2026-05-05 02:26 48.53652 -122.98272 14962 ft 388 kts 158°
2026-05-05 02:26 48.51194 -122.96886 14963 ft 367 kts 159°
2026-05-05 02:27 48.48808 -122.95744 14963 ft 355 kts 163°
2026-05-05 02:27 48.46433 -122.94743 14963 ft 356 kts 164°
2026-05-05 02:27 48.43940 -122.94394 14963 ft 365 kts 181°
2026-05-05 02:27 48.41393 -122.94633 14973 ft 368 kts 184°
2026-05-05 02:28 48.38843 -122.94810 14951 ft 367 kts 180°
2026-05-05 02:28 48.36305 -122.94528 14943 ft 365 kts 170°
2026-05-05 02:28 48.33855 -122.93744 14929 ft 364 kts 165°
2026-05-05 02:28 48.31405 -122.92795 14927 ft 363 kts 165°
2026-05-05 02:29 48.28938 -122.91980 14919 ft 363 kts 169°
2026-05-05 02:29 48.26443 -122.91365 14918 ft 364 kts 170°
2026-05-05 02:29 48.23945 -122.90723 14893 ft 365 kts 168°
2026-05-05 02:29 48.21455 -122.89981 14907 ft 365 kts 168°
2026-05-05 02:30 48.18963 -122.89233 14907 ft 366 kts 168°
2026-05-05 02:30 48.16458 -122.88531 14907 ft 366 kts 169°
2026-05-05 02:30 48.13939 -122.87835 14582 ft 374 kts 169°
2026-05-05 02:30 48.11381 -122.87117 14085 ft 372 kts 168°
2026-05-05 02:31 48.08901 -122.86407 13601 ft 363 kts 168°
2026-05-05 02:31 48.06455 -122.85717 13052 ft 353 kts 168°
2026-05-05 02:31 48.04069 -122.85046 12507 ft 345 kts 168°
2026-05-05 02:31 48.01729 -122.84384 12014 ft 340 kts 168°
2026-05-05 02:32 47.99452 -122.83741 11932 ft 327 kts 168°
2026-05-05 02:32 47.97210 -122.83109 11926 ft 331 kts 168°
2026-05-05 02:32 47.95108 -122.81793 11915 ft 327 kts 141°
2026-05-05 02:32 47.93728 -122.79243 11948 ft 311 kts 111°
2026-05-05 02:33 47.93364 -122.76172 11949 ft 297 kts 85°
2026-05-05 02:33 47.93551 -122.73161 11939 ft 296 kts 80°
2026-05-05 02:33 47.93736 -122.70056 11659 ft 307 kts 85°
2026-05-05 02:33 47.93644 -122.66841 11251 ft 312 kts 93°
2026-05-05 02:34 47.93358 -122.63666 10879 ft 305 kts 95°
2026-05-05 02:34 47.93124 -122.60571 10493 ft 295 kts 93°
2026-05-05 02:34 47.92981 -122.57558 10126 ft 288 kts 92°
2026-05-05 02:34 47.92830 -122.54619 9766 ft 281 kts 94°
2026-05-05 02:35 47.92374 -122.51823 9396 ft 276 kts 109°
2026-05-05 02:35 47.91503 -122.49352 9037 ft 272 kts 123°
2026-05-05 02:35 47.90261 -122.47253 8689 ft 269 kts 137°
2026-05-05 02:35 47.88732 -122.45664 8343 ft 268 kts 151°
2026-05-05 02:36 47.86998 -122.44651 7994 ft 269 kts 163°
2026-05-05 02:36 47.85199 -122.43881 7641 ft 270 kts 163°
2026-05-05 02:36 47.83399 -122.43080 7285 ft 270 kts 163°
2026-05-05 02:36 47.81596 -122.42273 6930 ft 270 kts 163°
2026-05-05 02:37 47.79806 -122.41481 6570 ft 267 kts 163°
2026-05-05 02:37 47.78035 -122.40701 6208 ft 265 kts 163°
2026-05-05 02:37 47.76291 -122.39890 5992 ft 257 kts 161°
2026-05-05 02:37 47.74661 -122.38997 5919 ft 246 kts 159°
2026-05-05 02:38 47.73080 -122.38131 5659 ft 245 kts 160°
2026-05-05 02:38 47.71473 -122.37297 5352 ft 244 kts 160°
2026-05-05 02:38 47.69866 -122.36467 5037 ft 245 kts 160°
2026-05-05 02:38 47.68260 -122.35627 4718 ft 245 kts 160°
2026-05-05 02:39 47.66654 -122.34785 4380 ft 245 kts 160°
2026-05-05 02:39 47.65051 -122.33949 4048 ft 245 kts 160°
2026-05-05 02:39 47.63443 -122.33112 3730 ft 245 kts 160°
2026-05-05 02:39 47.61840 -122.32276 3404 ft 243 kts 160°
2026-05-05 02:40 47.60263 -122.31686 3071 ft 233 kts 174°
2026-05-05 02:40 47.58713 -122.31668 2812 ft 210 kts 181°
2026-05-05 02:40 47.57366 -122.31699 2521 ft 178 kts 179°
2026-05-05 02:40 47.56201 -122.31692 2296 ft 161 kts 180°
2026-05-05 02:41 47.55154 -122.31715 2138 ft 143 kts 180°
2026-05-05 02:41 47.54165 -122.31714 1943 ft 140 kts 181°
2026-05-05 02:41 47.53220 -122.31726 1741 ft 132 kts 184°
2026-05-05 02:41 47.52311 -122.31734 1568 ft 132 kts 182°
2026-05-05 02:42 47.51394 -122.31743 1404 ft 130 kts 184°
2026-05-05 02:42 47.50504 -122.31750 1227 ft 126 kts 182°
2026-05-05 02:42 47.49670 -122.31748 1061 ft 117 kts 181°
2026-05-05 02:42 47.48869 -122.31773 942 ft 116 kts 184°
2026-05-05 02:43 47.48065 -122.31770 811 ft 116 kts 183°
2026-05-05 02:43 47.47252 -122.31778 629 ft 115 kts 187°
2026-05-05 02:43 47.46451 -122.31781 458 ft 111 kts 183°
2026-05-05 02:43 47.45786 -122.31794 389 ft 82 kts 178°
2026-05-05 02:44 47.45338 -122.31810 388 ft 52 kts 183°
2026-05-05 02:44 47.45035 -122.31794 388 ft 38 kts 172°
2026-05-05 02:44 47.44808 -122.31693 388 ft 31 kts 150°
2026-05-05 02:44 47.44669 -122.31500 388 ft 23 kts 116°
2026-05-05 02:45 47.44594 -122.31361 388 ft 17 kts 180°
2026-05-05 02:45 47.44470 -122.31363 388 ft 18 kts 180°
2026-05-05 02:45 47.44335 -122.31365 388 ft 21 kts 181°
2026-05-05 02:45 47.44184 -122.31365 388 ft 23 kts 180°
2026-05-05 02:46 47.44018 -122.31367 388 ft 22 kts 180°
2026-05-05 02:46 47.43958 -122.31429 388 ft 11 kts 272°
2026-05-05 02:46 47.43927 -122.31486 388 ft 7 kts 176°
2026-05-05 02:46 47.43885 -122.31483 388 ft 0 kts 178°